Date String (YYYY-MM-DD hh:mm:ss) UTC,Instrument flags,absolute air pressure of the measurement (hPa),sample flow rate (lpm),inlet stack bypass flow (lpm),air temperature of the measurement (°C),ambient temperature measured by the external sensor (°C),aerosol sample conditioner tube jacket temperature (°C),OPC LED temperature (°C),internal box temperature (°C),relative humidity of the measurement (%),span deviation,mass concentration of particles derived from Lorenz-Mie calculation of OPC scattering (μg/m³),mass concentration of particles derived from Lorenz-Mie calculation of OPC scattering (μg/m³),mass concentration of particles derived from Lorenz-Mie calculation of OPC scattering (μg/m³)
DateTimeUTC,F1_M11,P_M11,Q1_M11,Q2_M11,T1_M11,T2_M11,T3_M11,T4_M11,T5_M11,U1_M11,ZSPAN_M11,X0_M11,X2_M11,X1_M11
2023-11-10 16:00:00,SystemResetWarning,0832.9,5.00,000.00,021.0,020.3,000.0,029.3,022.5,12.1,0000.0,0008.39,0003.62,0003.19
2023-11-10 16:01:00,SystemResetWarning,0833.3,5.00,000.00,021.0,020.3,000.0,029.3,022.5,12.4,0000.0,0008.62,0003.61,0003.17
2023-11-10 16:02:00,SystemResetWarning,0833.4,5.00,000.00,021.0,020.3,000.0,029.3,022.5,12.3,0000.0,0008.78,0003.59,0003.16
2023-11-10 16:03:00,SystemResetWarning,0833.3,5.00,000.00,021.0,020.3,000.0,029.3,022.5,12.2,0000.0,0008.85,0003.60,0003.15
2023-11-10 16:04:00,SystemResetWarning,0833.2,5.00,000.00,021.1,020.4,000.0,029.3,022.5,12.6,0000.0,0008.83,0003.62,0003.14
2023-11-10 16:05:00,SystemResetWarning,0833.0,5.00,000.00,021.1,020.4,000.0,029.4,022.5,12.7,0000.0,0008.29,0003.61,0003.13
2023-11-10 16:06:00,SystemResetWarning,0833.2,5.00,000.00,021.1,020.4,000.0,029.4,022.6,12.6,0000.0,0008.57,0003.60,0003.12
2023-11-10 16:07:00,SystemResetWarning,0833.2,5.00,000.00,021.1,020.4,000.0,029.4,022.6,12.6,0000.0,0008.68,0003.58,0003.10
2023-11-10 16:08:00,SystemResetWarning,0833.0,5.00,000.00,021.1,020.4,000.0,029.4,022.6,12.4,0000.0,0008.53,0003.57,0003.10
2023-11-10 16:09:00,SystemResetWarning,0832.8,5.00,000.00,021.1,020.5,000.0,029.4,022.7,12.5,0000.0,0008.59,0003.58,0003.11
2023-11-10 16:10:00,SystemResetWarning,0832.8,5.00,000.00,021.2,020.5,000.0,029.4,022.6,12.4,0000.0,0008.61,0003.61,0003.12
2023-11-10 16:11:00,SystemResetWarning,0832.8,5.00,000.00,021.2,020.5,000.0,029.4,022.7,12.5,0000.0,0008.65,0003.62,0003.12
2023-11-10 16:12:00,SystemResetWarning,0832.9,5.00,000.00,021.2,020.5,000.0,029.4,022.7,12.6,0000.0,0008.55,0003.64,0003.13
2023-11-10 16:13:00,SystemResetWarning,0832.8,4.99,000.00,021.2,020.5,000.0,029.4,022.7,12.4,0000.0,0007.83,0003.67,0003.14
2023-11-10 16:14:00,SystemResetWarning,0832.8,5.00,000.00,021.2,020.5,000.0,029.5,022.7,12.5,0000.0,0007.80,0003.68,0003.15
2023-11-10 16:15:00,SystemResetWarning,0832.8,5.00,000.00,021.2,020.6,000.0,029.5,022.7,12.2,0000.0,0007.74,0003.65,0003.15
2023-11-10 16:16:00,SystemResetWarning,0832.8,5.00,000.00,021.2,020.6,000.0,029.5,022.7,12.0,0000.0,0007.87,0003.65,0003.18
2023-11-10 16:17:00,SystemResetWarning,0832.9,5.01,000.00,021.3,020.6,000.0,029.5,022.7,11.8,0000.0,0008.03,0003.69,0003.20
2023-11-10 16:18:00,SystemResetWarning,0832.8,5.00,000.00,021.3,020.6,000.0,029.5,022.8,11.7,0000.0,0007.30,0003.72,0003.22
2023-11-10 16:19:00,SystemResetWarning,0832.8,5.01,000.00,021.3,020.6,000.0,029.5,022.8,12.0,0000.0,0007.37,0003.76,0003.24
2023-11-10 16:20:00,SystemResetWarning,0832.9,5.00,000.00,021.3,020.6,000.0,029.5,022.8,12.4,0000.0,0007.38,0003.76,0003.23
2023-11-10 16:21:00,SystemResetWarning,0832.8,4.99,000.00,021.3,020.7,000.0,029.5,022.8,12.2,0000.0,0007.27,0003.75,0003.25
2023-11-10 16:22:00,SystemResetWarning,0832.8,5.00,000.00,021.3,020.7,000.0,029.5,022.8,12.1,0000.0,0007.29,0003.77,0003.27
2023-11-10 16:23:00,SystemResetWarning,0832.8,5.02,000.00,021.3,020.7,000.0,029.5,022.8,12.1,0000.0,0007.75,0003.80,0003.28
2023-11-10 16:24:00,SystemResetWarning,0832.8,5.00,000.00,021.3,020.7,000.0,029.6,022.8,12.1,0000.0,0007.68,0003.79,0003.29
2023-11-10 16:25:00,SystemResetWarning,0832.8,4.99,000.00,021.4,020.7,000.0,029.6,022.9,12.0,0000.0,0007.76,0003.81,0003.31
2023-11-10 16:26:00,SystemResetWarning,0832.8,5.00,000.00,021.4,020.7,000.0,029.6,022.9,12.2,0000.0,0007.91,0003.84,0003.32
2023-11-10 16:27:00,SystemResetWarning,0832.9,5.00,000.00,021.4,020.8,000.0,029.6,022.9,12.4,0000.0,0007.79,0003.86,0003.33
2023-11-10 16:28:00,SystemResetWarning,0832.8,5.00,000.00,021.4,020.8,000.0,029.6,023.0,12.4,0000.0,0007.67,0003.85,0003.34
2023-11-10 16:29:00,SystemResetWarning,0833.0,5.00,000.00,021.4,020.8,000.0,029.6,023.0,12.4,0000.0,0007.54,0003.82,0003.34
2023-11-10 16:30:00,SystemResetWarning,0832.8,5.00,000.00,021.5,020.8,000.0,029.7,023.0,12.4,0000.0,0007.63,0003.78,0003.34
2023-11-10 16:31:00,SystemResetWarning,0832.8,5.00,000.00,021.5,020.8,000.0,029.7,023.0,12.5,0000.0,0007.91,0003.79,0003.35
2023-11-10 16:32:00,SystemResetWarning,0832.7,5.00,000.00,021.5,020.9,000.0,029.7,023.0,12.1,0000.0,0007.91,0003.82,0003.36
2023-11-10 16:33:00,SystemResetWarning,0832.8,5.01,000.00,021.5,020.9,000.0,029.7,023.0,12.1,0000.0,0007.96,0003.84,0003.36
2023-11-10 16:34:00,SystemResetWarning,0832.8,5.00,000.00,021.5,020.9,000.0,029.7,023.1,12.0,0000.0,0007.69,0003.84,0003.37
2023-11-10 16:35:00,SystemResetWarning,0832.8,5.01,000.00,021.5,020.9,000.0,029.7,023.1,11.9,0000.0,0007.99,0003.84,0003.38
2023-11-10 16:36:00,SystemResetWarning,0832.8,4.99,000.00,021.5,020.9,000.0,029.7,023.1,11.8,0000.0,0008.38,0003.83,0003.38
2023-11-10 16:37:00,SystemResetWarning,0832.8,4.99,000.00,021.6,021.0,000.0,029.8,023.1,12.0,0000.0,0008.73,0003.84,0003.38
2023-11-10 16:38:00,SystemResetWarning,0832.8,5.00,000.00,021.6,021.0,000.0,029.8,023.1,11.8,0000.0,0008.89,0003.86,0003.38
2023-11-10 16:39:00,SystemResetWarning,0832.8,5.01,000.00,021.6,021.0,000.0,029.8,023.1,11.7,0000.0,0008.86,0003.85,0003.37
2023-11-10 16:40:00,SystemResetWarning,0832.8,5.00,000.00,021.6,021.0,000.0,029.8,023.2,11.5,0000.0,0008.99,0003.88,0003.35
2023-11-10 16:41:00,SystemResetWarning,0833.0,5.00,000.00,021.6,021.0,000.0,029.8,023.2,11.7,0000.0,0009.15,0003.90,0003.35
2023-11-10 16:42:00,SystemResetWarning,0833.0,5.00,000.00,021.7,021.1,000.0,029.8,023.2,12.0,0000.0,0009.05,0003.94,0003.35
2023-11-10 16:43:00,SystemResetWarning,0832.9,5.00,000.00,021.7,021.1,000.0,029.9,023.2,12.0,0000.0,0009.18,0003.96,0003.34
2023-11-10 16:44:00,SystemResetWarning,0832.8,4.99,000.00,021.7,021.1,000.0,029.9,023.2,11.9,0000.0,0009.29,0003.96,0003.33
2023-11-10 16:45:00,SystemResetWarning,0832.8,4.99,000.00,021.7,021.1,000.0,029.9,023.3,11.9,0000.0,0009.24,0003.94,0003.32
2023-11-10 16:46:00,SystemResetWarning,0832.8,5.00,000.00,021.7,021.1,000.0,029.9,023.3,12.0,0000.0,0008.97,0003.94,0003.31
2023-11-10 16:47:00,SystemResetWarning,0832.8,5.00,000.00,021.8,021.2,000.0,029.9,023.3,12.0,0000.0,0008.61,0003.94,0003.30
2023-11-10 16:48:00,SystemResetWarning,0832.8,5.01,000.00,021.8,021.2,000.0,029.9,023.3,11.7,0000.0,0008.21,0003.94,0003.30
2023-11-10 16:49:00,SystemResetWarning,0832.9,5.01,000.00,021.8,021.2,000.0,030.0,023.3,11.8,0000.0,0007.89,0003.91,0003.29
2023-11-10 16:50:00,SystemResetWarning,0832.8,5.00,000.00,021.8,021.2,000.0,030.0,023.4,11.5,0000.0,0007.86,0003.91,0003.29
2023-11-10 16:51:00,SystemResetWarning,0832.8,4.98,000.00,021.8,021.2,000.0,030.0,023.4,11.5,0000.0,0007.82,0003.92,0003.30
2023-11-10 16:52:00,SystemResetWarning,0832.8,5.00,000.00,021.8,021.3,000.0,030.0,023.4,11.4,0000.0,0007.64,0003.90,0003.30
2023-11-10 16:53:00,SystemResetWarning,0832.8,5.00,000.00,021.9,021.3,000.0,030.0,023.4,11.6,0000.0,0007.18,0003.85,0003.29
2023-11-10 16:54:00,SystemResetWarning,0832.8,5.00,000.00,021.9,021.3,000.0,030.0,023.4,11.4,0000.0,0007.13,0003.83,0003.29
2023-11-10 16:55:00,SystemResetWarning,0832.8,5.00,000.00,021.9,021.3,000.0,030.1,023.5,11.4,0000.0,0006.89,0003.82,0003.28
2023-11-10 16:56:00,SystemResetWarning,0832.8,5.00,000.00,021.9,021.3,000.0,030.1,023.5,11.2,0000.0,0006.91,0003.83,0003.28
2023-11-10 16:57:00,SystemResetWarning,0832.8,4.99,000.00,021.9,021.4,000.0,030.1,023.5,11.2,0000.0,0006.77,0003.82,0003.28
2023-11-10 16:58:00,SystemResetWarning,0832.7,5.00,000.00,022.0,021.4,000.0,030.1,023.5,11.1,0000.0,0007.21,0003.81,0003.27
2023-11-10 16:59:00,SystemResetWarning,0832.8,4.99,000.00,022.0,021.4,000.0,030.1,023.6,11.2,0000.0,0007.45,0003.79,0003.26
